IK2YOU-3 Weather Reports


time (UTC)temp
C
wind
direction
speed
KPH
gust
KPH
rain 1hr
cm
rain 24hr
cm
rain mn
cm
humidity
%
barometer
mb
20260506235406 13 291 3.2 6.4 0.00 0.58 0.00 85 1008.7
20260506234407 13 319 3.2 6.4 0.00 0.58 0.00 86 1008.7
20260506233406 13 259 1.6 4.8 0.00 0.58 0.00 86 1008.6
20260506232406 13 12 1.6 4.8 0.00 0.58 0.00 85 1008.5
20260506231408 13 13 1.6 6.4 0.00 0.58 0.00 85 1008.4
20260506230406 13 26 1.6 4.8 0.00 0.58 0.00 84 1008.3
20260506225406 13 27 1.6 4.8 0.00 0.58 0.00 83 1008.2
20260506224407 13 27 1.6 8.0 0.00 0.58 0.00 82 1008.1
20260506223407 13 49 6.4 12.9 0.00 0.58 0.00 82 1008.1
20260506222406 13 28 6.4 14.5 0.00 0.58 0.00 83 1008.1
20260506221406 13 58 3.2 8.0 0.00 0.58 0.00 85 1008.1
20260506220406 13 299 0.0 3.2 0.00 0.58 0.00 85 1008.2
20260506215403 13 299 0.0 3.2 0.00 0.58 0.58 85 1008.1
20260506214403 13 299 0.0 4.8 0.00 0.58 0.58 84 1008.2
20260506213404 14 299 3.2 8.0 0.00 0.58 0.58 84 1008.0
20260506212404 14 34 3.2 6.4 0.00 0.58 0.58 84 1008.0
20260506211403 14 44 3.2 6.4 0.00 0.58 0.58 84 1007.9
20260506210403 14 43 1.6 4.8 0.00 0.58 0.58 84 1007.9
20260506205403 14 46 3.2 8.0 0.00 0.58 0.58 84 1007.9
20260506204416 14 32 4.8 12.9 0.00 0.58 0.58 84 1007.8
20260506203404 14 12 3.2 8.0 0.00 0.58 0.58 84 1007.8
20260506202400 14 355 3.2 12.9 0.00 0.58 0.58 83 1007.8
20260506201401 14 32 3.2 8.0 0.00 0.58 0.58 83 1007.6
20260506200359 14 56 4.8 9.7 0.00 0.58 0.58 83 1007.4
20260506195359 14 57 4.8 8.0 0.00 0.58 0.58 83 1007.2
20260506194359 14 49 4.8 12.9 0.00 0.58 0.58 83 1007.2
20260506193403 14 46 4.8 9.7 0.00 0.58 0.58 82 1007.2
20260506192842 14 54 6.4 14.5 0.00 0.58 0.58 82 1007.1
20260506192616 14 54 6.4 14.5 0.00 0.58 0.58 82 1007.1
20260506191401 15 0 6.4 16.1 0.00 0.58 0.58 82 1007.1
20260506190401 15 19 6.4 9.7 0.00 0.58 0.58 82 1007.1
20260506185401 15 41 6.4 14.5 0.00 0.58 0.58 82 1006.9
20260506184401 15 315 4.8 11.3 0.00 0.58 0.58 82 1006.7
20260506183852 15 40 6.4 12.9 0.00 0.58 0.58 82 1006.3
20260506183615 15 40 6.4 12.9 0.00 0.58 0.58 82 1006.3
20260506182402 15 0 4.8 12.9 0.00 0.58 0.58 81 1006.2
20260506181402 15 319 4.8 14.5 0.00 0.58 0.58 81 1006.1
20260506180416 15 348 6.4 14.5 0.00 0.58 0.58 79 1005.9
20260506175402 16 327 6.4 17.7 0.00 0.58 0.58 78 1005.8
20260506174402 16 340 6.4 17.7 0.00 0.58 0.58 77 1005.5
20260506173400 16 323 8.0 17.7 0.00 0.58 0.58 77 1005.3
20260506172401 16 42 6.4 14.5 0.00 0.58 0.58 76 1005.2
20260506171401 16 332 6.4 16.1 0.00 0.58 0.58 76 1005.1
20260506170401 17 334 6.4 17.7 0.00 0.58 0.58 76 1004.9
20260506165401 17 0 8.0 19.3 0.00 0.58 0.58 76 1004.7
20260506164400 17 315 11.3 22.5 0.00 0.58 0.58 75 1004.5
20260506163400 18 332 9.7 24.1 0.00 0.58 0.58 73 1004.3
20260506162401 18 337 11.3 30.6 0.00 0.58 0.58 71 1004.2
20260506161400 20 302 12.9 24.1 0.00 0.58 0.58 68 1003.6
20260506160401 22 313 8.0 22.5 0.00 0.58 0.58 55 1003.6
20260506155401 21 183 6.4 14.5 0.00 0.58 0.58 56 1003.4
20260506154401 21 180 4.8 11.3 0.00 0.58 0.58 59 1003.3
20260506153400 21 176 4.8 9.7 0.00 0.58 0.58 62 1003.4
20260506152401 21 171 4.8 12.9 0.00 0.58 0.58 64 1003.4
20260506151401 22 182 6.4 19.3 0.00 0.58 0.58 71 1003.5
20260506150401 22 112 8.0 19.3 0.00 0.58 0.58 69 1003.5
20260506145401 21 135 8.0 19.3 0.00 0.58 0.58 72 1003.6
20260506144836 21 97 8.0 22.5 0.00 0.58 0.58 75 1003.7
20260506144612 21 97 8.0 22.5 0.00 0.58 0.58 75 1003.7
20260506143401 21 135 9.7 22.5 0.00 0.58 0.58 73 1003.7
20260506142401 22 115 9.7 33.8 0.00 0.58 0.58 72 1003.9
20260506141400 21 136 9.7 24.1 0.00 0.58 0.58 71 1004.1
20260506140401 21 79 9.7 25.7 0.00 0.58 0.58 72 1004.2
20260506135402 21 126 11.3 25.7 0.00 0.58 0.58 71 1004.5
20260506134401 21 144 8.0 25.7 0.00 0.58 0.58 72 1004.5
20260506133836 21 94 8.0 22.5 0.00 0.58 0.58 72 1004.8
20260506133613 21 94 8.0 22.5 0.00 0.58 0.58 72 1004.8
20260506132402 21 81 9.7 20.9 0.00 0.58 0.58 73 1004.8
20260506131401 22 135 8.0 29.0 0.00 0.58 0.58 71 1004.9
20260506130400 21 133 8.0 19.3 0.00 0.58 0.58 73 1004.8
20260506125401 21 109 9.7 24.1 0.00 0.58 0.58 74 1005.0
20260506124401 21 71 8.0 20.9 0.00 0.58 0.58 76 1005.0
20260506123858 20 90 9.7 22.5 0.00 0.58 0.58 78 1004.9
20260506123614 20 90 9.7 22.5 0.00 0.58 0.58 78 1004.9
20260506122402 20 86 14.5 24.1 0.00 0.58 0.58 81 1005.0
20260506121400 20 89 11.3 25.7 0.00 0.58 0.58 81 1005.0
20260506120400 20 102 9.7 27.4 0.00 0.58 0.58 81 1005.2
20260506115841 19 116 11.3 29.0 0.00 0.58 0.58 83 1005.3
20260506115613 19 116 11.3 29.0 0.00 0.58 0.58 83 1005.3
20260506114842 19 90 11.3 25.7 0.00 0.58 0.58 83 1005.4
20260506114614 19 90 11.3 25.7 0.00 0.58 0.58 83 1005.4
20260506113402 19 91 8.0 20.9 0.00 0.58 0.58 83 1005.6
20260506112401 18 120 11.3 25.7 0.00 0.58 0.58 85 1005.5
20260506111401 17 96 9.7 20.9 0.00 0.58 0.58 85 1005.6
20260506110844 17 110 11.3 27.4 0.00 0.58 0.58 85 1005.8
20260506110612 17 110 11.3 27.4 0.00 0.58 0.58 85 1005.8
20260506105400 17 117 11.3 24.1 0.00 0.58 0.58 85 1005.7
20260506104401 17 167 9.7 20.9 0.00 0.58 0.58 84 1005.8
20260506103413 17 72 6.4 19.3 0.00 0.58 0.58 84 1005.8
20260506102400 17 96 9.7 22.5 0.00 0.58 0.58 84 1005.8
20260506101402 17 105 9.7 20.9 0.00 0.58 0.58 85 1005.9
20260506100402 17 104 9.7 25.7 0.00 0.58 0.58 83 1005.9
20260506095416 17 121 9.7 27.4 0.00 0.58 0.58 81 1005.8
20260506094401 17 101 9.7 20.9 0.00 0.58 0.58 76 1005.7
20260506093400 16 78 11.3 22.5 0.03 0.58 0.58 72 1005.8
20260506092401 16 120 11.3 22.5 0.10 0.58 0.58 68 1005.9
20260506091401 15 116 11.3 22.5 0.23 0.58 0.58 68 1005.8
20260506090845 15 97 9.7 19.3 0.33 0.58 0.58 68 1005.8
20260506090614 15 97 9.7 19.3 0.33 0.58 0.58 68 1005.8
20260506085401 14 102 4.8 17.7 0.41 0.58 0.58 68 1005.8
20260506084401 14 113 6.4 16.1 0.41 0.58 0.58 69 1006.2
20260506083401 14 105 4.8 12.9 0.38 0.56 0.56 72 1006.1
20260506082401 14 111 8.0 22.5 0.30 0.48 0.48 72 1006.4
20260506081401 14 98 9.7 19.3 0.18 0.36 0.38 73 1006.2
20260506080836 14 93 6.4 24.1 0.05 0.23 0.25 74 1006.2
20260506080614 14 93 6.4 24.1 0.05 0.23 0.25 74 1006.2
20260506073401 15 115 12.9 24.1 0.00 0.18 0.18 71 1005.7
20260506072414 15 117 11.3 22.5 0.00 0.18 0.18 69 1005.8
20260506071400 14 122 14.5 25.7 0.00 0.18 0.18 68 1005.8
20260506070401 15 92 12.9 24.1 0.00 0.18 0.18 67 1005.9
20260506062405 13 101 8.0 24.1 0.00 0.18 0.18 66 1006.4
20260506061400 13 111 11.3 19.3 0.00 0.18 0.18 66 1006.4
20260506060400 13 88 8.0 19.3 0.00 0.18 0.18 66 1006.5
20260506051401 13 76 8.0 20.9 0.05 0.18 0.18 66 1006.4
20260506050413 13 92 9.7 17.7 0.08 0.18 0.18 66 1006.5
20260506044402 13 95 6.4 12.9 0.08 0.15 0.15 67 1006.8
20260506043401 13 96 3.2 11.3 0.08 0.15 0.15 67 1006.8
20260506042843 13 138 3.2 9.7 0.08 0.15 0.15 67 1007.2
20260506042615 13 138 3.2 9.7 0.08 0.15 0.15 67 1007.2
20260506041839 13 130 3.2 14.5 0.05 0.13 0.13 67 1007.2
20260506041611 13 130 3.2 14.5 0.05 0.13 0.13 67 1007.2
20260506040838 13 139 3.2 11.3 0.05 0.10 0.10 67 1007.0
20260506040612 13 139 3.2 11.3 0.05 0.10 0.10 67 1007.0
20260506035357 13 142 3.2 11.3 0.10 0.10 0.10 68 1007.1
20260506034352 13 123 3.2 11.3 0.08 0.08 0.08 68 1007.2
20260506033604 13 126 3.2 12.9 0.05 0.05 0.05 69 1007.3
20260506032351 13 128 4.8 11.3 0.05 0.05 0.05 69 1007.3
20260506031828 13 95 4.8 9.7 0.05 0.05 0.05 71 1007.2
20260506031606 13 95 4.8 9.7 0.05 0.05 0.05 71 1007.2
20260506030352 13 82 3.2 9.7 0.05 0.05 0.05 71 1007.3
20260506025352 13 94 3.2 4.8 0.00 0.00 0.03 72 1007.5
20260506024825 13 82 3.2 9.7 0.00 0.00 0.00 72 1007.7
20260506024604 13 82 3.2 9.7 0.00 0.00 0.00 72 1007.7
20260506023345 13 95 4.8 11.3 0.00 0.00 0.00 72 1007.9
20260506022345 13 62 6.4 11.3 0.00 0.00 0.00 73 1008.0
20260506021818 13 101 3.2 12.9 0.00 0.00 0.00 73 1008.1
20260506021557 13 101 3.2 12.9 0.00 0.00 0.00 73 1008.1
20260506020345 13 80 3.2 9.7 0.00 0.00 0.00 73 1008.2
20260506015345 13 123 3.2 9.7 0.00 0.00 0.00 73 1008.2
20260506014345 13 87 3.2 12.9 0.00 0.00 0.00 73 1008.4
20260506013345 13 117 1.6 11.3 0.00 0.00 0.00 73 1008.3
20260506012345 13 140 6.4 12.9 0.00 0.00 0.00 74 1008.3
20260506011345 13 101 6.4 12.9 0.00 0.00 0.00 74 1008.2
20260506010354 13 119 4.8 0.0 0.00 0.00 0.00 74 1008.2
20260506005420 13 103 3.2 9.7 0.00 0.46 0.00 74 1008.0
20260506004419 13 91 1.6 4.8 0.00 0.46 0.00 75 1008.1
20260506003416 13 112 1.6 9.7 0.00 0.46 0.00 74 1008.3
20260506002847 13 92 4.8 11.3 0.00 0.46 0.00 74 1008.5
20260506002627 13 92 4.8 11.3 0.00 0.46 0.00 74 1008.5
20260506001416 13 107 3.2 9.7 0.00 0.46 0.00 74 1008.7
20260506000416 14 105 3.2 9.7 0.00 0.46 0.00 74 1008.8